Wind_Speed
52 52 51 49 49 49 49 49 49 50 50 52 54 56 58 60 62 63 64 65 66 68 69 70 71 72 73 73 74 75 75 76 77 78 79 81 82 83
53 52 51 50 50 50 50 51 52 54 54 55 57 60 62 64 65 66 67 69 70 71 72 73 74 75 76 77 78 79 79 81 82 83 85 87 88 89
52 51 51 50 52 52 53 54 56 57 58 59 62 64 65 67 69 70 72 73 73 74 75 76 77 79 80 81 82 83 84 86 87 88 89 90 90 90
50 50 50 51 52 53 54 55 58 59 61 62 64 67 69 71 72 74 74 74 75 77 78 80 81 83 84 85 86 87 87 87 87 87 86 84 83 82
48 48 49 51 52 54 56 58 60 62 63 65 67 70 71 74 75 76 76 77 79 80 82 84 85 86 87 87 87 86 84 83 82 79 76 73 71 69
46 47 49 51 53 55 57 59 61 63 66 68 70 72 74 75 77 77 78 79 81 83 85 86 86 86 85 84 81 78 76 73 70 66 63 61 60 60
44 46 50 52 55 57 59 61 63 66 68 71 72 73 74 76 78 79 80 81 82 83 83 82 81 79 77 74 71 68 66 63 60 58 56 55 54 54
43 46 50 53 55 58 60 63 66 68 70 71 71 73 75 78 79 80 81 81 79 79 77 73 72 69 67 64 62 60 58 56 54 52 51 50 50 50
44 47 51 54 56 58 61 64 66 68 70 71 73 75 77 79 80 80 79 78 74 72 69 63 61 59 56 55 55 55 54 53 52 50 48 47 47 48
44 48 50 53 57 59 61 63 65 68 70 73 75 77 78 78 77 75 72 68 63 60 59 55 52 51 51 52 53 54 53 52 50 48 46 45 45 45
46 48 51 54 56 59 61 62 65 69 72 74 75 75 73 71 68 64 61 57 53 51 53 51 49 48 47 48 50 51 50 49 47 45 44 43 42 41
46 49 51 54 56 58 61 63 67 69 71 72 70 67 64 62 60 58 55 52 49 47 47 47 46 46 42 41 43 45 45 45 44 43 41 39 37 36
46 49 51 54 56 59 62 65 67 68 67 64 61 59 58 57 55 51 49 47 46 45 45 43 42 42 41 38 36 39 40 40 39 38 36 34 32 31
46 49 52 54 58 61 64 65 64 62 60 57 55 54 52 49 47 44 44 44 44 43 42 41 39 38 36 34 32 32 34 35 34 32 30 28 27 26
47 50 53 57 60 62 62 61 59 56 53 51 49 47 44 41 40 41 41 41 41 42 40 38 36 35 33 31 28 28 27 27 29 27 25 24 23 23
49 52 56 59 61 60 57 55 52 50 48 45 42 39 37 38 39 39 39 38 37 38 40 38 35 33 31 29 26 23 22 21 22 23 22 21 21 20
51 55 58 58 57 54 52 50 48 45 43 40 37 35 35 37 38 38 37 36 35 35 34 35 34 32 31 29 25 23 20 19 20 20 20 20 20 20
53 56 56 54 52 49 48 46 44 42 39 36 34 34 35 36 36 37 36 35 35 34 33 32 30 28 29 30 29 24 21 20 20 20 19 18 20 22
54 54 53 50 48 47 46 43 40 37 35 33 33 34 34 35 35 35 35 34 33 33 33 32 29 27 25 25 27 27 23 21 21 21 22 20 19 21
54 52 50 48 46 45 42 39 36 34 33 32 32 33 34 34 34 34 34 33 32 31 32 32 30 28 27 24 23 25 26 23 20 20 21 21 21 21
52 49 46 45 43 41 37 34 32 32 31 31 32 33 34 34 34 33 33 32 31 30 30 30 29 29 28 26 24 24 25 26 24 21 19 18 19 21
48 45 44 42 40 36 33 31 31 30 30 31 31 33 34 34 33 32 32 31 30 30 29 29 29 28 28 27 25 23 23 24 25 25 22 19 18 19
45 43 41 39 35 32 30 30 30 29 29 30 31 32 33 33 32 32 31 30 29 28 28 27 28 28 29 28 26 25 24 23 23 24 24 23 20 19
Wind_Direction
271 274 276 278 280 284 285 285 286 287 288 289 291 292 293 294 295 295 295 295 294 294 293 292 291 290 289 288 286 285 284 282 281 280 279 277 276 275
271 273 276 277 280 282 283 285 285 286 287 289 291 292 293 294 294 295 295 295 294 293 292 291 290 289 288 287 286 285 284 283 282 281 280 278 277 276
271 272 275 276 280 281 283 284 285 287 288 290 291 293 294 295 295 295 296 295 294 294 293 292 291 290 289 288 287 286 285 284 282 281 280 279 278 277
271 273 274 276 279 281 283 284 287 289 290 291 293 294 295 296 296 296 296 296 295 294 293 293 292 291 290 289 288 287 286 285 283 282 281 279 277 276
270 273 275 277 279 282 283 286 289 291 292 294 295 296 297 297 297 297 297 297 296 295 295 294 293 292 291 290 289 288 286 284 283 281 279 278 276 274
271 273 275 279 281 284 286 289 291 293 295 296 297 297 298 298 298 298 298 298 298 297 296 295 294 293 292 291 289 288 286 284 282 280 278 276 275 273
271 274 277 280 284 287 289 292 293 295 296 298 299 299 299 299 299 299 299 299 298 297 297 297 296 295 294 292 290 288 286 284 282 280 278 276 274 272
274 277 280 283 287 290 292 294 295 297 298 299 300 300 300 300 301 301 301 300 299 298 298 298 297 296 295 294 292 289 287 285 283 280 278 276 274 272
276 279 282 286 290 294 296 298 299 300 300 301 301 302 302 302 302 303 302 302 301 300 299 298 297 296 296 295 293 291 288 286 284 282 280 277 275 272
281 284 287 291 294 297 298 300 301 302 302 303 304 304 304 304 304 305 304 304 304 302 300 300 298 297 297 295 293 292 290 288 285 283 281 278 275 273
288 290 294 296 298 299 301 302 303 304 305 305 306 306 306 306 307 308 308 307 306 304 302 303 301 299 298 296 294 293 291 289 286 284 282 279 276 274
294 297 298 300 301 303 304 304 305 306 307 308 308 308 309 310 311 311 310 309 308 306 304 305 304 302 300 296 294 292 291 290 288 286 283 280 278 275
299 301 302 303 305 306 306 307 307 308 308 309 309 310 311 312 313 313 313 313 312 311 310 310 308 307 306 302 296 292 291 290 289 288 285 281 278 273
303 304 306 307 308 309 309 310 310 310 310 310 311 312 313 314 315 316 317 317 316 316 315 315 315 314 312 310 304 297 294 293 291 289 287 284 280 273
307 308 309 310 311 312 312 312 313 313 313 313 314 315 316 317 318 320 321 321 321 321 322 323 322 321 319 317 312 305 300 297 296 295 292 288 283 276
310 311 312 314 314 315 315 315 316 316 316 317 317 317 318 320 321 323 324 324 324 324 324 326 327 326 325 323 321 315 309 302 298 300 299 294 288 281
313 314 316 316 316 316 317 318 319 318 319 319 318 318 320 322 323 325 326 326 326 326 326 327 328 329 329 328 326 322 318 311 307 304 301 298 294 288
316 317 318 318 318 319 319 319 319 319 320 320 319 321 322 323 324 325 326 327 327 327 328 329 329 329 329 327 326 326 322 317 313 308 304 298 292 290
318 318 318 318 318 318 319 319 319 319 321 321 321 323 324 325 325 326 327 327 328 328 329 330 331 331 329 325 321 322 322 319 314 310 307 302 295 291
318 318 318 318 318 319 319 319 319 320 322 322 323 325 327 327 327 327 328 328 328 329 330 330 332 333 333 331 326 322 323 323 319 312 306 303 299 294
318 317 318 318 318 319 319 320 320 321 322 324 326 328 329 330 329 329 330 330 331 332 332 332 333 334 335 335 332 328 325 326 326 322 313 304 298 294
318 317 318 318 318 319 320 320 321 322 323 325 327 329 331 331 331 332 332 333 333 333 333 333 334 334 334 335 334 333 330 328 327 326 323 317 307 297
317 317 318 318 319 319 320 321 322 322 323 325 327 329 331 333 333 333 334 334 334 334 334 334 334 334 334 335 334 334 333 331 330 327 324 323 319 311
Height
5701 5700 5699 5697 5695 5693 5691 5688 5686 5683 5680 5676 5670 5666 5661 5657 5652 5648 5644 5639 5634 5629 5624 5619 5615 5611 5606 5603 5599 5595 5592 5589 5586 5583 5580 5578 5575 5574
5689 5688 5687 5685 5683 5681 5678 5675 5672 5670 5666 5663 5657 5652 5646 5641 5636 5631 5626 5621 5616 5610 5604 5599 5594 5589 5584 5580 5575 5571 5567 5563 5560 5556 5553 5549 5547 5544
5678 5677 5676 5674 5672 5669 5666 5663 5659 5655 5652 5648 5642 5636 5630 5624 5618 5612 5607 5601 5595 5588 5581 5576 5570 5565 5560 5554 5549 5545 5540 5535 5531 5526 5522 5518 5515 5513
5667 5665 5664 5661 5659 5656 5652 5649 5644 5640 5636 5632 5626 5619 5612 5605 5600 5594 5587 5580 5573 5565 5558 5551 5545 5539 5533 5527 5521 5515 5510 5504 5500 5495 5491 5487 5484 5481
5656 5654 5652 5650 5646 5643 5639 5635 5630 5625 5620 5615 5609 5602 5594 5586 5580 5574 5566 5558 5549 5540 5533 5525 5518 5511 5503 5497 5491 5485 5479 5473 5469 5465 5461 5458 5456 5454
5644 5643 5640 5638 5634 5630 5625 5620 5615 5609 5603 5597 5591 5583 5575 5566 5559 5553 5546 5536 5526 5515 5506 5498 5490 5482 5473 5467 5461 5455 5449 5445 5441 5439 5436 5435 5433 5431
5633 5631 5629 5626 5622 5617 5612 5606 5600 5593 5586 5579 5572 5565 5556 5547 5539 5530 5523 5514 5503 5489 5481 5471 5462 5455 5446 5439 5433 5428 5424 5421 5418 5416 5415 5413 5412 5411
5623 5621 5618 5614 5609 5604 5598 5591 5584 5576 5569 5562 5555 5546 5537 5527 5518 5508 5499 5490 5481 5467 5458 5450 5437 5431 5423 5416 5409 5404 5401 5399 5397 5396 5395 5394 5393 5392
5613 5610 5606 5601 5596 5590 5583 5576 5567 5558 5551 5544 5536 5525 5516 5506 5497 5487 5475 5465 5455 5442 5435 5432 5420 5413 5405 5397 5390 5385 5382 5379 5378 5378 5377 5376 5374 5373
5602 5598 5594 5589 5583 5576 5569 5561 5551 5542 5534 5525 5516 5505 5494 5484 5474 5465 5454 5445 5436 5422 5413 5412 5405 5398 5391 5382 5373 5367 5364 5362 5361 5360 5359 5358 5357 5356
5591 5587 5581 5576 5569 5562 5555 5547 5537 5526 5515 5504 5494 5484 5473 5463 5454 5445 5436 5428 5421 5411 5399 5395 5390 5384 5379 5370 5359 5351 5346 5344 5343 5343 5342 5341 5340 5340
5580 5575 5569 5562 5555 5547 5539 5531 5521 5510 5498 5486 5475 5465 5455 5446 5437 5429 5421 5413 5405 5399 5389 5382 5375 5367 5365 5360 5349 5339 5332 5329 5328 5327 5327 5326 5325 5325
5568 5562 5556 5548 5540 5532 5523 5514 5504 5493 5482 5471 5460 5450 5441 5432 5423 5415 5406 5398 5391 5384 5376 5369 5363 5355 5348 5345 5339 5329 5322 5318 5316 5314 5313 5313 5312 5312
5557 5550 5543 5535 5526 5517 5507 5497 5486 5476 5466 5457 5447 5438 5429 5420 5412 5404 5396 5387 5379 5371 5364 5357 5351 5344 5336 5331 5326 5320 5314 5309 5306 5305 5303 5302 5301 5301
5545 5537 5529 5520 5511 5501 5490 5480 5471 5461 5452 5444 5435 5427 5419 5411 5403 5396 5388 5379 5370 5361 5353 5347 5340 5334 5327 5321 5316 5311 5307 5303 5298 5296 5295 5294 5293 5292
5532 5524 5515 5505 5496 5485 5476 5466 5457 5449 5440 5433 5425 5417 5410 5403 5396 5388 5381 5373 5365 5355 5346 5339 5333 5326 5320 5314 5308 5304 5300 5297 5294 5290 5289 5287 5286 5285
5519 5510 5501 5491 5481 5472 5463 5454 5446 5438 5431 5423 5417 5410 5403 5396 5388 5381 5374 5366 5358 5351 5344 5335 5327 5321 5314 5308 5304 5299 5295 5292 5289 5287 5284 5282 5280 5278
5506 5497 5487 5478 5469 5461 5452 5444 5437 5429 5422 5415 5409 5403 5396 5389 5382 5374 5366 5359 5352 5345 5337 5331 5325 5319 5312 5305 5299 5295 5292 5288 5285 5282 5279 5277 5275 5273
5493 5484 5475 5467 5458 5450 5442 5435 5427 5421 5414 5408 5402 5396 5389 5382 5375 5368 5361 5354 5346 5339 5332 5325 5320 5314 5310 5304 5297 5290 5287 5284 5280 5277 5273 5271 5270 5267
5481 5472 5464 5456 5448 5440 5433 5426 5419 5413 5408 5402 5396 5389 5383 5376 5369 5362 5355 5348 5341 5335 5328 5321 5314 5309 5303 5299 5294 5287 5281 5278 5275 5272 5269 5265 5263 5261
5469 5461 5453 5445 5438 5431 5424 5418 5412 5407 5401 5396 5389 5383 5376 5369 5363 5356 5349 5342 5336 5330 5323 5317 5311 5305 5299 5294 5289 5284 5278 5272 5268 5265 5262 5260 5257 5254
5457 5450 5443 5435 5429 5422 5417 5411 5406 5401 5395 5390 5384 5377 5371 5364 5357 5350 5344 5338 5331 5325 5319 5313 5307 5301 5295 5290 5284 5280 5275 5269 5263 5258 5255 5252 5250 5247
5447 5440 5433 5427 5421 5415 5410 5405 5400 5395 5389 5384 5378 5372 5366 5359 5353 5346 5340 5333 5328 5322 5316 5310 5304 5298 5292 5286 5280 5275 5270 5265 5260 5255 5251 5246 5243 5240